When you browse on this site, cookies collect data to enhance your experience and personalize the content and advertising you see.
Visit our Privacy Policy to learn more. By continuing to use the site, you agree to this use of cookies and data.
  • Em Portugal
  • Lista de países
  • Para 7 dias
  • Temperatura da água
  • Mapas de satélite
  • Mapa do tempo
  • Widgets de tempo
  • user-avatar
    Iniciar Sessão

    Previsão horária em Balchik

    Hoje, 22 Janeiro, Terça-feira

    Tempo Temperatura Precipitação Vento Pressão Humidade
    00:00 -3°C° 0 mm 2 m/s 743 mmHg 87%
    01:00 -3°C° 0 mm 2 m/s 743 mmHg 87%
    02:00 -1°C° 0 mm 1 m/s 743 mmHg 86%
    03:00 -3°C° 0 mm 2 m/s 743 mmHg 88%
    04:00 -3°C° 0 mm 2 m/s 743 mmHg 89%
    05:00 -3°C° 0 mm 2 m/s 742 mmHg 90%
    06:00 -3°C° 0 mm 2 m/s 742 mmHg 90%
    07:00 -2°C° 0 mm 2 m/s 742 mmHg 90%
    08:00 -2°C° 0 mm 3 m/s 742 mmHg 90%
    09:00 -1°C° 0 mm 3 m/s 742 mmHg 86%
    10:00 -1°C° 0 mm 4 m/s 742 mmHg 82%
    11:00 0°C° 0 mm 5 m/s 742 mmHg 77%
    12:00 +1°C° 0.1 mm 5 m/s 741 mmHg 78%
    13:00 +1°C° 0.1 mm 5 m/s 740 mmHg 80%
    14:00 +1°C° 0.1 mm 5 m/s 740 mmHg 81%
    15:00 +1°C° 0 mm 5 m/s 739 mmHg 84%
    16:00 +1°C° 0 mm 5 m/s 739 mmHg 87%
    17:00 0°C° 0 mm 5 m/s 738 mmHg 90%
    18:00 +1°C° 0.1 mm 5 m/s 738 mmHg 91%
    19:00 +1°C° 0.1 mm 5 m/s 737 mmHg 92%
    20:00 +1°C° 0.1 mm 5 m/s 737 mmHg 94%
    21:00 +1°C° 0.1 mm 6 m/s 736 mmHg 94%
    22:00 +2°C° 0.1 mm 6 m/s 736 mmHg 94%
    23:00 +2°C° 0.1 mm 7 m/s 735 mmHg 94%

    Amanhã, 23 Janeiro, Quarta-feira

    Tempo Temperatura Precipitação Vento Pressão Humidade
    00:00 +2°C° 0.1 mm 7 m/s 735 mmHg 94%
    01:00 +2°C° 0.1 mm 6 m/s 734 mmHg 95%
    02:00 +3°C° 0.1 mm 6 m/s 733 mmHg 95%
    03:00 +3°C° 0.9 mm 6 m/s 733 mmHg 95%
    04:00 +3°C° 0.9 mm 6 m/s 732 mmHg 96%
    05:00 +3°C° 0.9 mm 7 m/s 731 mmHg 96%
    06:00 +4°C° 0.4 mm 6 m/s 731 mmHg 96%
    07:00 +4°C° 0.4 mm 6 m/s 730 mmHg 95%
    08:00 +5°C° 0.4 mm 5 m/s 730 mmHg 94%
    09:00 +5°C° 0 mm 6 m/s 730 mmHg 90%
    10:00 +8°C° 0 mm 6 m/s 730 mmHg 86%
    11:00 +9°C° 0 mm 6 m/s 730 mmHg 81%
    12:00 +9°C° 0 mm 6 m/s 730 mmHg 77%
    13:00 +10°C° 0 mm 5 m/s 730 mmHg 73%
    14:00 +12°C° 0 mm 5 m/s 730 mmHg 69%
    15:00 +11°C° 0 mm 4 m/s 730 mmHg 74%
    16:00 +10°C° 0 mm 3 m/s 729 mmHg 78%
    17:00 +8°C° 0 mm 2 m/s 729 mmHg 83%
    18:00 +8°C° 0 mm 2 m/s 729 mmHg 85%
    19:00 +8°C° 0 mm 3 m/s 729 mmHg 87%
    20:00 +7°C° 0 mm 3 m/s 729 mmHg 89%
    21:00 +6°C° 0 mm 4 m/s 730 mmHg 90%
    22:00 +6°C° 0 mm 4 m/s 730 mmHg 92%
    23:00 +6°C° 0 mm 5 m/s 730 mmHg 93%

    Depois de amanhã, 24 Janeiro, Quinta-feira

    Tempo Temperatura Precipitação Vento Pressão Humidade
    00:00 +6°C° 0 mm 5 m/s 730 mmHg 93%
    01:00 +6°C° 0 mm 4 m/s 729 mmHg 94%
    02:00 +6°C° 0 mm 4 m/s 729 mmHg 94%
    03:00 +6°C° 0.3 mm 4 m/s 729 mmHg 95%
    04:00 +6°C° 0.3 mm 4 m/s 729 mmHg 96%
    05:00 +6°C° 0.3 mm 5 m/s 728 mmHg 96%
    06:00 +6°C° 0.2 mm 5 m/s 728 mmHg 96%
    07:00 +5°C° 0.2 mm 6 m/s 728 mmHg 95%
    08:00 +5°C° 0.2 mm 6 m/s 728 mmHg 95%
    09:00 +7°C° 0 mm 6 m/s 728 mmHg 88%
    10:00 +8°C° 0 mm 7 m/s 728 mmHg 82%
    11:00 +9°C° 0 mm 7 m/s 728 mmHg 75%
    12:00 +9°C° 0 mm 7 m/s 728 mmHg 76%
    13:00 +8°C° 0 mm 6 m/s 728 mmHg 77%
    14:00 +8°C° 0 mm 5 m/s 727 mmHg 78%
    15:00 +8°C° 0 mm 5 m/s 727 mmHg 81%
    16:00 +7°C° 0 mm 4 m/s 727 mmHg 84%
    17:00 +6°C° 0 mm 4 m/s 727 mmHg 87%
    18:00 +6°C° 0.2 mm 4 m/s 727 mmHg 90%
    19:00 +6°C° 0.2 mm 4 m/s 728 mmHg 92%
    20:00 +5°C° 0.2 mm 4 m/s 728 mmHg 94%
    21:00 +5°C° 0.1 mm 5 m/s 728 mmHg 94%
    22:00 +5°C° 0.1 mm 5 m/s 728 mmHg 94%
    23:00 +3°C° 0.1 mm 6 m/s 728 mmHg 94%

    25 Janeiro, Sexta-feira

    Tempo Temperatura Precipitação Vento Pressão Humidade
    00:00 +3°C° 0.1 mm 6 m/s 728 mmHg 94%
    01:00 +3°C° 0.1 mm 6 m/s 728 mmHg 93%
    02:00 +3°C° 0.1 mm 6 m/s 728 mmHg 93%
    03:00 +3°C° 0.6 mm 6 m/s 728 mmHg 94%
    04:00 +3°C° 0.6 mm 5 m/s 728 mmHg 94%
    05:00 +3°C° 0.6 mm 5 m/s 728 mmHg 95%
    06:00 +4°C° 0.4 mm 4 m/s 729 mmHg 95%
    07:00 +4°C° 0.4 mm 4 m/s 729 mmHg 96%
    08:00 +4°C° 0.4 mm 3 m/s 730 mmHg 96%
    09:00 +4°C° 0 mm 3 m/s 730 mmHg 94%
    10:00 +4°C° 0 mm 3 m/s 730 mmHg 91%
    11:00 +4°C° 0 mm 3 m/s 731 mmHg 89%
    12:00 +4°C° 0 mm 3 m/s 730 mmHg 88%
    13:00 +4°C° 0 mm 3 m/s 730 mmHg 88%
    14:00 +3°C° 0 mm 4 m/s 730 mmHg 87%
    15:00 +3°C° 0.1 mm 4 m/s 730 mmHg 88%
    16:00 +3°C° 0.1 mm 4 m/s 730 mmHg 89%
    17:00 +3°C° 0.1 mm 4 m/s 730 mmHg 90%
    18:00 +3°C° 0.3 mm 4 m/s 730 mmHg 91%
    19:00 +1°C° 0.3 mm 4 m/s 730 mmHg 93%
    20:00 +1°C° 0.3 mm 4 m/s 731 mmHg 94%
    21:00 +3°C° 1.1 mm 4 m/s 730 mmHg 95%
    22:00 +3°C° 1.1 mm 4 m/s 730 mmHg 96%
    23:00 +3°C° 1.1 mm 4 m/s 730 mmHg 97%

    26 Janeiro, Sábado

    Tempo Temperatura Precipitação Vento Pressão Humidade
    00:00 +3°C° 0.6 mm 5 m/s 729 mmHg 97%
    01:00 +3°C° 0.6 mm 5 m/s 729 mmHg 97%
    02:00 +3°C° 0.6 mm 5 m/s 729 mmHg 97%
    03:00 +3°C° 1.1 mm 5 m/s 728 mmHg 97%
    04:00 +3°C° 1.1 mm 5 m/s 728 mmHg 97%
    05:00 +2°C° 1.1 mm 5 m/s 728 mmHg 97%
    06:00 +2°C° 0.9 mm 5 m/s 728 mmHg 96%
    07:00 +1°C° 0.9 mm 5 m/s 728 mmHg 96%
    08:00 +1°C° 0.9 mm 5 m/s 728 mmHg 95%
    09:00 0°C° 0.2 mm 5 m/s 729 mmHg 94%
    10:00 0°C° 0.2 mm 5 m/s 729 mmHg 93%
    11:00 0°C° 0.2 mm 5 m/s 729 mmHg 91%
    12:00 0°C° 0 mm 5 m/s 729 mmHg 90%
    13:00 0°C° 0 mm 5 m/s 729 mmHg 89%
    14:00 0°C° 0 mm 5 m/s 729 mmHg 88%
    15:00 -1°C° 0 mm 5 m/s 729 mmHg 89%
    16:00 -1°C° 0 mm 5 m/s 729 mmHg 89%
    17:00 -2°C° 0 mm 5 m/s 729 mmHg 90%
    18:00 -2°C° 0 mm 5 m/s 730 mmHg 90%
    19:00 -4°C° 0 mm 5 m/s 730 mmHg 91%
    20:00 -4°C° 0 mm 4 m/s 730 mmHg 92%
    21:00 -3°C° 0 mm 4 m/s 730 mmHg 92%
    22:00 -3°C° 0 mm 4 m/s 730 mmHg 91%
    23:00 -3°C° 0 mm 4 m/s 730 mmHg 90%

    27 Janeiro, Domingo

    Tempo Temperatura Precipitação Vento Pressão Humidade
    00:00 -4°C° 0 mm 5 m/s 730 mmHg 90%
    01:00 -4°C° 0 mm 5 m/s 730 mmHg 90%
    02:00 -4°C° 0 mm 5 m/s 730 mmHg 90%
    03:00 -3°C° 0 mm 4 m/s 730 mmHg 90%
    04:00 -4°C° 0 mm 4 m/s 730 mmHg 90%
    05:00 -4°C° 0 mm 4 m/s 730 mmHg 90%
    06:00 -4°C° 0 mm 4 m/s 730 mmHg 90%
    07:00 -4°C° 0 mm 3 m/s 731 mmHg 89%
    08:00 -4°C° 0 mm 3 m/s 731 mmHg 89%
    09:00 -2°C° 0 mm 3 m/s 731 mmHg 86%
    10:00 -1°C° 0 mm 3 m/s 731 mmHg 83%
    11:00 -1°C° 0 mm 3 m/s 731 mmHg 80%
    12:00 0°C° 0 mm 3 m/s 731 mmHg 78%
    13:00 +1°C° 0 mm 3 m/s 731 mmHg 77%
    14:00 +2°C° 0 mm 3 m/s 731 mmHg 75%
    15:00 +2°C° 0 mm 2 m/s 731 mmHg 79%
    16:00 +1°C° 0 mm 2 m/s 731 mmHg 82%
    17:00 +1°C° 0 mm 1 m/s 731 mmHg 86%
    18:00 +1°C° 0 mm 1 m/s 732 mmHg 88%
    19:00 +1°C° 0 mm 1 m/s 732 mmHg 90%
    20:00 -1°C° 0 mm 0 m/s 732 mmHg 91%
    21:00 0°C° 0 mm 1 m/s 733 mmHg 91%
    22:00 0°C° 0 mm 1 m/s 733 mmHg 91%
    23:00 +1°C° 0 mm 1 m/s 733 mmHg 91%
    Mostrar mais